Time,TemperatureF,DewpointF,PressureIn,WindDirection,WindDirectionDegrees,WindSpeedMPH,WindSpeedGustMPH,Humidity,HourlyPrecipIn,Conditions,Clouds,dailyrainin,SoftwareType,DateUTC
2013-04-10 00:09:00,49.1,44.5,29.88,NE,45,4.7,-999.0,84,-99.99,,,0.00,Acu-Link.com,2013-04-10 04:09:00,
2013-04-10 00:25:00,48.9,44.3,29.88,North,0,5.3,-999.0,84,-99.99,,,0.00,Acu-Link.com,2013-04-10 04:25:00,
2013-04-10 00:40:00,48.6,44.3,29.88,NNE,22,3.2,-999.0,85,-99.99,,,0.00,Acu-Link.com,2013-04-10 04:40:00,
2013-04-10 00:55:00,48.6,44.3,29.87,NE,45,2.7,-999.0,85,-99.99,,,0.00,Acu-Link.com,2013-04-10 04:55:00,
2013-04-10 01:11:00,48.6,44.3,29.85,SSE,157,3.2,-999.0,85,-99.99,,,0.00,Acu-Link.com,2013-04-10 05:11:00,
2013-04-10 01:26:00,48.6,44.3,29.86,NNE,22,2.7,-999.0,85,-99.99,,,0.00,Acu-Link.com,2013-04-10 05:26:00,
2013-04-10 01:56:00,48.7,44.4,29.82,ENE,67,2.7,-999.0,85,-99.99,,,0.00,Acu-Link.com,2013-04-10 05:56:00,
2013-04-10 02:12:00,48.9,44.3,29.82,ESE,112,1.7,-999.0,84,-99.99,,,0.00,Acu-Link.com,2013-04-10 06:12:00,
2013-04-10 02:27:00,48.9,44.3,29.82,SE,135,2.2,-999.0,84,-99.99,,,0.00,Acu-Link.com,2013-04-10 06:27:00,
2013-04-10 02:42:00,48.9,44.3,29.80,SSE,157,3.7,-999.0,84,-99.99,,,0.00,Acu-Link.com,2013-04-10 06:42:00,
2013-04-10 02:57:00,48.9,44.3,29.79,ESE,112,4.7,-999.0,84,-99.99,,,0.00,Acu-Link.com,2013-04-10 06:57:00,
2013-04-10 03:12:00,48.7,44.4,29.78,NE,45,3.2,-999.0,85,-99.99,,,0.00,Acu-Link.com,2013-04-10 07:12:00,
2013-04-10 03:28:00,48.6,44.3,29.78,NE,45,3.2,-999.0,85,-99.99,,,0.00,Acu-Link.com,2013-04-10 07:28:00,
2013-04-10 03:43:00,49.6,44.7,29.87,ENE,67,3.7,-999.0,83,-99.99,,,0.00,Acu-Link.com,2013-04-10 07:43:00,
2013-04-10 03:58:00,49.6,45.9,29.88,SW,225,2.2,-999.0,87,-99.99,,,0.01,Acu-Link.com,2013-04-10 07:58:00,
2013-04-10 04:14:00,48.9,46.1,29.84,NNE,22,4.2,-999.0,90,-99.99,,,0.04,Acu-Link.com,2013-04-10 08:14:00,
2013-04-10 04:29:00,48.2,45.7,29.81,NNE,22,3.2,-999.0,91,-99.99,,,0.04,Acu-Link.com,2013-04-10 08:29:00,
2013-04-10 04:44:00,48.0,45.5,29.79,NNW,337,6.8,-999.0,91,-99.99,,,0.05,Acu-Link.com,2013-04-10 08:44:00,
2013-04-10 04:59:00,48.0,45.8,29.78,NNE,22,3.2,-999.0,92,-99.99,,,0.05,Acu-Link.com,2013-04-10 08:59:00,
2013-04-10 05:15:00,47.8,45.6,29.78,NNE,22,1.7,-999.0,92,-99.99,,,0.05,Acu-Link.com,2013-04-10 09:15:00,
2013-04-10 05:30:00,47.8,45.6,29.78,North,0,0.0,-999.0,92,-99.99,,,0.05,Acu-Link.com,2013-04-10 09:30:00,
2013-04-10 05:45:00,47.7,45.5,29.79,ENE,67,0.0,-999.0,92,-99.99,,,0.05,Acu-Link.com,2013-04-10 09:45:00,
2013-04-10 06:00:00,47.1,45.2,29.82,NNW,337,2.2,-999.0,93,-99.99,,,0.05,Acu-Link.com,2013-04-10 10:00:00,
2013-04-10 06:15:00,46.8,45.2,29.81,WNW,292,0.0,-999.0,94,-99.99,,,0.05,Acu-Link.com,2013-04-10 10:15:00,
2013-04-10 06:30:00,46.6,45.2,29.83,WNW,292,0.0,-999.0,95,-99.99,,,0.05,Acu-Link.com,2013-04-10 10:30:00,
2013-04-10 06:45:00,46.6,45.5,29.84,NE,45,0.0,-999.0,96,-99.99,,,0.05,Acu-Link.com,2013-04-10 10:45:00,
2013-04-10 07:16:00,48.2,46.8,29.85,NNE,22,0.0,-999.0,95,-99.99,,,0.05,Acu-Link.com,2013-04-10 11:16:00,
2013-04-10 07:31:00,48.9,47.2,29.85,SW,225,0.0,-999.0,94,-99.99,,,0.05,Acu-Link.com,2013-04-10 11:31:00,
2013-04-10 07:46:00,49.3,46.8,29.85,North,0,0.0,-999.0,91,-99.99,,,0.05,Acu-Link.com,2013-04-10 11:46:00,
2013-04-10 08:02:00,50.4,47.6,29.87,NE,45,0.0,-999.0,90,-99.99,,,0.05,Acu-Link.com,2013-04-10 12:02:00,
2013-04-10 08:17:00,52.7,48.6,29.86,ENE,67,0.0,-999.0,86,-99.99,,,0.05,Acu-Link.com,2013-04-10 12:17:00,
2013-04-10 08:32:00,53.4,47.7,29.87,NW,315,1.7,-999.0,81,-99.99,,,0.05,Acu-Link.com,2013-04-10 12:32:00,
2013-04-10 08:47:00,52.0,46.7,29.87,NE,45,4.7,-999.0,82,-99.99,,,0.05,Acu-Link.com,2013-04-10 12:47:00,
2013-04-10 09:02:00,53.2,47.5,29.87,North,0,1.7,-999.0,81,-99.99,,,0.05,Acu-Link.com,2013-04-10 13:02:00,
2013-04-10 09:17:00,53.2,47.2,29.86,NE,45,2.2,-999.0,80,-99.99,,,0.05,Acu-Link.com,2013-04-10 13:17:00,
2013-04-10 09:33:00,54.7,48.3,29.86,SE,135,1.7,-999.0,79,-99.99,,,0.05,Acu-Link.com,2013-04-10 13:33:00,
2013-04-10 09:48:00,55.8,48.7,29.87,ESE,112,1.7,-999.0,77,-99.99,,,0.05,Acu-Link.com,2013-04-10 13:48:00,
2013-04-10 10:03:00,58.3,49.7,29.88,SW,225,3.2,-999.0,73,-99.99,,,0.05,Acu-Link.com,2013-04-10 14:03:00,
2013-04-10 10:19:00,58.1,49.5,29.88,NNW,337,1.7,-999.0,73,-99.99,,,0.05,Acu-Link.com,2013-04-10 14:19:00,
2013-04-10 10:34:00,60.3,50.1,29.88,NE,45,2.7,-999.0,69,-99.99,,,0.05,Acu-Link.com,2013-04-10 14:34:00,
2013-04-10 10:49:00,57.7,49.5,29.86,SE,135,2.2,-999.0,74,-99.99,,,0.05,Acu-Link.com,2013-04-10 14:49:00,
2013-04-10 11:05:00,59.2,49.4,29.86,SSE,157,3.2,-999.0,70,-99.99,,,0.05,Acu-Link.com,2013-04-10 15:05:00,
2013-04-10 11:20:00,61.0,50.4,29.87,NNE,22,3.2,-999.0,68,-99.99,,,0.05,Acu-Link.com,2013-04-10 15:20:00,
2013-04-10 11:35:00,64.2,51.8,29.86,South,180,1.7,-999.0,64,-99.99,,,0.05,Acu-Link.com,2013-04-10 15:35:00,
2013-04-10 12:06:00,61.2,49.7,29.87,South,180,6.3,-999.0,66,-99.99,,,0.05,Acu-Link.com,2013-04-10 16:06:00,
2013-04-10 12:22:00,61.0,49.6,29.87,South,180,1.7,-999.0,66,-99.99,,,0.05,Acu-Link.com,2013-04-10 16:22:00,
2013-04-10 12:37:00,60.8,49.8,29.87,SSE,157,2.7,-999.0,67,-99.99,,,0.05,Acu-Link.com,2013-04-10 16:37:00,
2013-04-10 12:52:00,61.3,49.8,29.87,South,180,3.7,-999.0,66,-99.99,,,0.05,Acu-Link.com,2013-04-10 16:52:00,
2013-04-10 13:08:00,61.5,50.0,29.87,South,180,3.2,-999.0,66,-99.99,,,0.05,Acu-Link.com,2013-04-10 17:08:00,
2013-04-10 13:23:00,59.9,49.7,29.86,South,180,2.2,-999.0,69,-99.99,,,0.05,Acu-Link.com,2013-04-10 17:23:00,
2013-04-10 13:38:00,57.7,49.1,29.86,SSE,157,4.2,-999.0,73,-99.99,,,0.05,Acu-Link.com,2013-04-10 17:38:00,
2013-04-10 13:53:00,54.9,47.1,29.86,ESE,112,2.2,-999.0,75,-99.99,,,0.05,Acu-Link.com,2013-04-10 17:53:00,
2013-04-10 14:09:00,57.7,49.5,29.85,SSW,202,2.2,-999.0,74,-99.99,,,0.05,Acu-Link.com,2013-04-10 18:09:00,
2013-04-10 14:24:00,58.3,49.3,29.85,SSW,202,2.7,-999.0,72,-99.99,,,0.05,Acu-Link.com,2013-04-10 18:24:00,
2013-04-10 14:39:00,63.1,51.1,29.84,SSW,202,1.1,-999.0,65,-99.99,,,0.05,Acu-Link.com,2013-04-10 18:39:00,
2013-04-10 14:54:00,62.6,50.7,29.83,SE,135,3.2,-999.0,65,-99.99,,,0.05,Acu-Link.com,2013-04-10 18:54:00,
2013-04-10 15:10:00,63.0,51.5,29.83,SSE,157,1.7,-999.0,66,-99.99,,,0.05,Acu-Link.com,2013-04-10 19:10:00,
2013-04-10 15:25:00,59.7,49.9,29.83,SSW,202,3.7,-999.0,70,-99.99,,,0.05,Acu-Link.com,2013-04-10 19:25:00,
2013-04-10 15:40:00,55.0,48.3,29.83,SE,135,2.7,-999.0,78,-99.99,,,0.05,Acu-Link.com,2013-04-10 19:40:00,
2013-04-10 15:55:00,54.3,47.6,29.82,SW,225,4.7,-999.0,78,-99.99,,,0.05,Acu-Link.com,2013-04-10 19:55:00,
2013-04-10 16:10:00,52.9,46.6,29.82,South,180,6.3,-999.0,79,-99.99,,,0.05,Acu-Link.com,2013-04-10 20:10:00,
2013-04-10 16:26:00,52.7,46.7,29.84,ESE,112,4.2,-999.0,80,-99.99,,,0.05,Acu-Link.com,2013-04-10 20:26:00,
2013-04-10 16:41:00,53.4,47.1,29.83,SW,225,2.7,-999.0,79,-99.99,,,0.05,Acu-Link.com,2013-04-10 20:41:00,
2013-04-10 16:56:00,52.7,46.4,29.82,South,180,4.7,-999.0,79,-99.99,,,0.05,Acu-Link.com,2013-04-10 20:56:00,
2013-04-10 17:11:00,52.3,46.0,29.82,SE,135,3.7,-999.0,79,-99.99,,,0.05,Acu-Link.com,2013-04-10 21:11:00,
2013-04-10 17:27:00,52.0,46.4,29.81,ESE,112,4.7,-999.0,81,-99.99,,,0.05,Acu-Link.com,2013-04-10 21:27:00,
2013-04-10 17:42:00,51.6,46.3,29.82,East,90,4.7,-999.0,82,-99.99,,,0.05,Acu-Link.com,2013-04-10 21:42:00,
2013-04-10 17:57:00,52.3,46.3,29.82,ESE,112,4.7,-999.0,80,-99.99,,,0.05,Acu-Link.com,2013-04-10 21:57:00,
2013-04-10 18:12:00,52.0,46.4,29.82,East,90,4.7,-999.0,81,-99.99,,,0.05,Acu-Link.com,2013-04-10 22:12:00,
2013-04-10 18:27:00,50.5,45.8,29.81,SE,135,3.2,-999.0,84,-99.99,,,0.05,Acu-Link.com,2013-04-10 22:27:00,
2013-04-10 18:42:00,49.8,45.8,29.83,WSW,247,1.7,-999.0,86,-99.99,,,0.05,Acu-Link.com,2013-04-10 22:42:00,
2013-04-10 18:58:00,49.6,45.6,29.82,SE,135,1.7,-999.0,86,-99.99,,,0.05,Acu-Link.com,2013-04-10 22:58:00,
2013-04-10 19:13:00,49.1,45.4,29.81,ESE,112,2.7,-999.0,87,-99.99,,,0.05,Acu-Link.com,2013-04-10 23:13:00,
2013-04-10 19:28:00,48.2,44.8,29.80,East,90,3.7,-999.0,88,-99.99,,,0.05,Acu-Link.com,2013-04-10 23:28:00,
2013-04-10 19:44:00,47.8,44.7,29.79,SSE,157,3.7,-999.0,89,-99.99,,,0.05,Acu-Link.com,2013-04-10 23:44:00,
2013-04-10 19:59:00,47.7,44.6,29.81,SSW,202,1.1,-999.0,89,-99.99,,,0.05,Acu-Link.com,2013-04-10 23:59:00,
2013-04-10 20:14:00,47.8,44.7,29.94,WSW,247,7.8,-999.0,89,-99.99,,,0.05,Acu-Link.com,2013-04-11 00:14:00,
2013-04-10 20:30:00,48.4,45.6,29.88,SSE,157,1.1,-999.0,90,-99.99,,,0.05,Acu-Link.com,2013-04-11 00:30:00,
2013-04-10 20:45:00,48.2,46.3,29.84,ESE,112,2.7,-999.0,93,-99.99,,,0.06,Acu-Link.com,2013-04-11 00:45:00,
2013-04-10 21:00:00,47.3,45.7,29.78,ESE,112,3.7,-999.0,94,-99.99,,,0.10,Acu-Link.com,2013-04-11 01:00:00,
2013-04-10 21:15:00,47.1,45.5,29.78,NNE,22,1.7,-999.0,94,-99.99,,,0.13,Acu-Link.com,2013-04-11 01:15:00,
2013-04-10 21:30:00,47.1,45.7,29.78,NNE,22,3.2,-999.0,95,-99.99,,,0.13,Acu-Link.com,2013-04-11 01:30:00,
2013-04-10 22:16:00,46.4,45.3,29.79,South,180,1.7,-999.0,96,-99.99,,,0.13,Acu-Link.com,2013-04-11 02:16:00,
2013-04-10 22:32:00,46.2,45.1,29.80,NNE,22,1.1,-999.0,96,-99.99,,,0.13,Acu-Link.com,2013-04-11 02:32:00,
2013-04-10 22:47:00,45.7,44.6,29.78,NNE,22,2.2,-999.0,96,-99.99,,,0.13,Acu-Link.com,2013-04-11 02:47:00,
2013-04-10 23:02:00,45.7,44.6,29.80,NNE,22,2.2,-999.0,96,-99.99,,,0.13,Acu-Link.com,2013-04-11 03:02:00,
2013-04-10 23:18:00,45.9,45.1,29.80,ESE,112,1.7,-999.0,97,-99.99,,,0.15,Acu-Link.com,2013-04-11 03:18:00,
2013-04-10 23:33:00,45.9,45.1,29.82,ESE,112,0.0,-999.0,97,-99.99,,,0.19,Acu-Link.com,2013-04-11 03:33:00,
2013-04-10 23:49:00,45.7,44.9,29.79,ENE,67,0.0,-999.0,97,-99.99,,,0.19,Acu-Link.com,2013-04-11 03:49:00,